Regional Weather Roundup
Issued by NWS Bismarck, ND

Home | Current Version | Previous Version | Text Only | Print | Product List | Glossary On
Versions: 1 2 3 4 5 6 7 8 9 10 11 12 13 14 15 16 17 18 19 20 21 22 23 24 25 26 27 28 29 30 31 32 33 34 35 36 37 38 39 40 41 42 43 44 45 46 47 48 49 50
178
ASUS43 KBIS 201310
RWRBIS

NWR BROADCAST TEXT
NATIONAL WEATHER SERVICE BISMARCK ND
700 AM CST MON NOV 20 2017

NOTE: "FAIR" INDICATES FEW OR NO CLOUDS BELOW 12,000 FEET WITH NO
SIGNIFICANT WEATHER AND/OR OBSTRUCTIONS TO VISIBILITY.


CITY           SKY/WX    TMP DP  RH WIND       PRES   REMARKS
WILLISTON      CLOUDY    35  21  56 SW9       29.38F
MINOT          CLOUDY    41  22  46 SW15      29.35F
MINOT AFB      CLOUDY    37  23  57 W12       29.33F
BISMARCK       CLOUDY    32  23  69 CALM      29.46F
DICKINSON      CLOUDY    38  19  46 SW15      29.43F
GARRISON         N/A     33  25  72 W6        29.39F
HETTINGER ARPT CLOUDY    37  17  44 NW10      29.50F
JAMESTOWN      CLOUDY    31  23  72 S10       29.42F
CARRINGTON     FAIR      34  25  69 W13       29.42F
LINTON           N/A     28  18  64 CALM      29.49F
OAKES            N/A     27  23  86 S15       29.49F WCI  15
TIOGA          FAIR      32  19  59 SW14      29.37F
$$

CITY           SKY/WX    TMP DP  RH WIND       PRES   REMARKS
GRAND FORKS    CLOUDY    30  26  85 S16       29.41F WCI  19
GRAND FORKS AF CLOUDY    32  25  77 SW8       29.40F
DEVILS LAKE    CLOUDY    33  24  69 SW9       29.38F
FARGO          CLOUDY    30  23  75 S12       29.48F
CANDO          FAIR      28  28 100 SW6       29.38F
CAVALIER       FAIR      25  23  93 S9        29.36F WCI  15
GWINNER          N/A     30  23  74 SW14      29.48F WCI  20
ROLLA          FAIR      28  23  80 SW16      29.32F WCI  17
WALHALLA       FAIR      34  25  69 S5        29.33F
$$

CITY           SKY/WX    TMP DP  RH WIND       PRES   REMARKS
ABERDEEN       CLOUDY    24  22  91 S8        29.53F WCI  15
MOBRIDGE       CLOUDY    28  23  81 SE8       29.49F WCI  20
BUFFALO          N/A     39  15  37 SW14      29.46F
RAPID CITY     CLOUDY    34  16  47 CALM      29.58S
GLASGOW        CLOUDY    46  17  31 W10       29.40S
SIDNEY         CLEAR     32  20  61 SW8       29.40F
WOLF POINT     CLOUDY    33  22  63 SW8       29.39F
GLENDIVE       CLOUDY    35  19  52 SE5       29.46S
MILES CITY     CLOUDY    38  21  50 S3        29.49F
BAKER          CLOUDY    36  19  50 W10       29.49F
$$

CITY           SKY/WX    TMP DP  RH WIND       PRES   REMARKS
BILLINGS       PTCLDY    45  15  30 SW20      29.55F
GREAT FALLS    CLOUDY    46  19  34 SW23G37   29.52F
REGINA         CLOUDY    32  27  80 W14       29.24S
ESTEVAN        MOCLDY    32  21  64 SW12G17   29.30F
$$





USA.gov is the U.S. government's official web portal to all federal, state and local government web resources and services.